| time (UTC) | temp F | wind direction | speed MPH | gust MPH | rain 1hr in | rain 24hr in | rain mn in | humidity % | barometer mb |
| 20260507213118 | 63 | 338 | 4.0 | 13.0 | 0.00 | 0.00 | 0.00 | 30 | 1004.9 |
| 20260507212617 | 63 | 283 | 4.0 | 13.0 | 0.00 | 0.00 | 0.00 | 31 | 1004.9 |
| 20260507212118 | 63 | 300 | 4.0 | 13.0 | 0.00 | 0.00 | 0.00 | 31 | 1005.0 |
| 20260507211619 | 63 | 326 | 2.0 | 13.0 | 0.00 | 0.00 | 0.00 | 30 | 1005.0 |
| 20260507211344 | 64 | 24 | 3.0 | 9.0 | 0.00 | 0.00 | 0.00 | 30 | 1004.9 |
| 20260507210618 | 63 | 295 | 3.0 | 9.0 | 0.00 | 0.00 | 0.00 | 31 | 1004.9 |
| 20260507210118 | 64 | 342 | 4.0 | 12.0 | 0.00 | 0.00 | 0.00 | 31 | 1005.0 |
| 20260507205618 | 63 | 323 | 4.0 | 12.0 | 0.00 | 0.00 | 0.00 | 31 | 1005.0 |
| 20260507205118 | 64 | 344 | 3.0 | 8.0 | 0.00 | 0.00 | 0.00 | 32 | 1004.9 |
| 20260507204619 | 64 | 290 | 3.0 | 9.0 | 0.00 | 0.00 | 0.00 | 32 | 1004.8 |
| 20260507204119 | 64 | 345 | 2.0 | 9.0 | 0.00 | 0.00 | 0.00 | 32 | 1004.8 |
| 20260507203617 | 64 | 335 | 4.0 | 12.0 | 0.00 | 0.00 | 0.00 | 32 | 1004.9 |
| 20260507203115 | 63 | 290 | 4.0 | 12.0 | 0.00 | 0.00 | 0.00 | 31 | 1004.7 |
| 20260507202617 | 64 | 311 | 3.0 | 10.0 | 0.00 | 0.00 | 0.00 | 31 | 1004.8 |
| 20260507202117 | 65 | 6 | 3.0 | 10.0 | 0.00 | 0.00 | 0.00 | 32 | 1004.9 |
| 20260507201617 | 64 | 276 | 3.0 | 10.0 | 0.00 | 0.00 | 0.00 | 33 | 1004.9 |
| 20260507201118 | 65 | 345 | 3.0 | 10.0 | 0.00 | 0.00 | 0.00 | 33 | 1004.9 |
| 20260507200838 | 64 | 301 | 3.0 | 10.0 | 0.00 | 0.00 | 0.00 | 32 | 1004.9 |
| 20260507200117 | 64 | 288 | 3.0 | 10.0 | 0.00 | 0.00 | 0.00 | 33 | 1005.0 |
| 20260507195617 | 64 | 325 | 3.0 | 10.0 | 0.00 | 0.00 | 0.00 | 33 | 1005.0 |
| 20260507195117 | 64 | 323 | 2.0 | 10.0 | 0.00 | 0.00 | 0.00 | 33 | 1005.1 |
| 20260507194618 | 63 | 342 | 3.0 | 16.0 | 0.00 | 0.00 | 0.00 | 33 | 1005.0 |
| 20260507194114 | 64 | 307 | 3.0 | 16.0 | 0.00 | 0.00 | 0.00 | 33 | 1005.1 |
| 20260507193614 | 63 | 349 | 4.0 | 16.0 | 0.00 | 0.00 | 0.00 | 35 | 1005.1 |
| 20260507193112 | 63 | 321 | 4.0 | 16.0 | 0.00 | 0.00 | 0.00 | 33 | 1005.3 |
| 20260507192616 | 64 | 356 | 4.0 | 16.0 | 0.00 | 0.00 | 0.00 | 34 | 1005.3 |
| 20260507192610 | 64 | 297 | 4.0 | 16.0 | 0.00 | 0.00 | 0.00 | 32 | 1005.2 |
| 20260507191612 | 63 | 290 | 4.0 | 15.0 | 0.00 | 0.00 | 0.00 | 34 | 1005.3 |
| 20260507191111 | 64 | 281 | 3.0 | 15.0 | 0.00 | 0.00 | 0.00 | 33 | 1005.3 |
| 20260507190611 | 64 | 310 | 4.0 | 15.0 | 0.00 | 0.00 | 0.00 | 34 | 1005.2 |
| 20260507190338 | 64 | 276 | 4.0 | 14.0 | 0.00 | 0.00 | 0.00 | 32 | 1005.3 |
| 20260507185611 | 64 | 276 | 3.0 | 11.0 | 0.00 | 0.00 | 0.00 | 33 | 1005.4 |
| 20260507185112 | 64 | 273 | 4.0 | 11.0 | 0.00 | 0.00 | 0.00 | 33 | 1005.3 |
| 20260507185102 | 64 | 271 | 4.0 | 11.0 | 0.00 | 0.00 | 0.00 | 32 | 1005.3 |
| 20260507184554 | 65 | 304 | 3.0 | 9.0 | 0.00 | 0.00 | 0.00 | 30 | 1005.3 |
| 20260507183835 | 65 | 249 | 3.0 | 8.0 | 0.00 | 0.00 | 0.00 | 31 | 1005.4 |
| 20260507183108 | 65 | 359 | 2.0 | 7.0 | 0.00 | 0.00 | 0.00 | 34 | 1005.3 |
| 20260507182608 | 64 | 307 | 3.0 | 13.0 | 0.00 | 0.00 | 0.00 | 33 | 1005.3 |
| 20260507182344 | 63 | 293 | 3.0 | 13.0 | 0.00 | 0.00 | 0.00 | 36 | 1005.3 |
| 20260507181608 | 63 | 292 | 5.0 | 13.0 | 0.00 | 0.00 | 0.00 | 36 | 1005.5 |
| 20260507181108 | 63 | 341 | 4.0 | 13.0 | 0.00 | 0.00 | 0.00 | 36 | 1005.4 |
| 20260507180608 | 63 | 266 | 4.0 | 11.0 | 0.00 | 0.00 | 0.00 | 37 | 1005.4 |
| 20260507180338 | 63 | 196 | 3.0 | 11.0 | 0.00 | 0.00 | 0.00 | 39 | 1005.4 |
| 20260507175609 | 63 | 291 | 3.0 | 10.0 | 0.00 | 0.00 | 0.00 | 37 | 1005.5 |
| 20260507175109 | 63 | 8 | 3.0 | 13.0 | 0.00 | 0.00 | 0.00 | 40 | 1005.3 |
| 20260507174609 | 63 | 279 | 3.0 | 13.0 | 0.00 | 0.00 | 0.00 | 37 | 1005.4 |
| 20260507174108 | 62 | 299 | 4.0 | 13.0 | 0.00 | 0.00 | 0.00 | 39 | 1005.4 |
| 20260507173606 | 62 | 283 | 4.0 | 13.0 | 0.00 | 0.00 | 0.00 | 40 | 1005.4 |
| 20260507173105 | 62 | 21 | 3.0 | 12.0 | 0.00 | 0.00 | 0.00 | 41 | 1005.4 |
| 20260507172602 | 62 | 269 | 3.0 | 12.0 | 0.00 | 0.00 | 0.00 | 41 | 1005.4 |
| 20260507172103 | 62 | 269 | 4.0 | 12.0 | 0.00 | 0.00 | 0.00 | 41 | 1005.6 |
| 20260507171831 | 62 | 291 | 4.0 | 12.0 | 0.00 | 0.00 | 0.00 | 42 | 1005.6 |
| 20260507171103 | 62 | 292 | 4.0 | 11.0 | 0.00 | 0.00 | 0.00 | 48 | 1005.8 |
| 20260507170602 | 62 | 352 | 4.0 | 14.0 | 0.00 | 0.00 | 0.00 | 49 | 1005.8 |
| 20260507170115 | 62 | 301 | 4.0 | 14.0 | 0.00 | 0.00 | 0.00 | 46 | 1005.8 |
| 20260507165603 | 62 | 279 | 4.0 | 14.0 | 0.00 | 0.00 | 0.00 | 45 | 1005.9 |
| 20260507165327 | 61 | 287 | 3.0 | 14.0 | 0.00 | 0.00 | 0.00 | 51 | 1005.9 |
| 20260507164604 | 61 | 272 | 2.0 | 13.0 | 0.00 | 0.00 | 0.00 | 52 | 1006.1 |
| 20260507164104 | 61 | 321 | 3.0 | 13.0 | 0.00 | 0.00 | 0.00 | 53 | 1006.1 |
| 20260507163605 | 60 | 256 | 5.0 | 13.0 | 0.00 | 0.00 | 0.00 | 53 | 1006.2 |
| 20260507163332 | 60 | 314 | 4.0 | 13.0 | 0.00 | 0.00 | 0.00 | 52 | 1006.2 |
| 20260507162826 | 62 | 358 | 3.0 | 11.0 | 0.00 | 0.00 | 0.00 | 51 | 1006.2 |
| 20260507162322 | 62 | 231 | 2.0 | 7.0 | 0.00 | 0.00 | 0.00 | 50 | 1006.2 |
| 20260507161601 | 61 | 275 | 2.0 | 7.0 | 0.00 | 0.00 | 0.00 | 50 | 1006.3 |
| 20260507161321 | 61 | 349 | 3.0 | 7.0 | 0.00 | 0.00 | 0.00 | 50 | 1006.3 |
| 20260507160829 | 61 | 278 | 3.0 | 7.0 | 0.00 | 0.00 | 0.00 | 47 | 1006.4 |
| 20260507160113 | 61 | 191 | 3.0 | 11.0 | 0.00 | 0.00 | 0.00 | 51 | 1006.4 |
| 20260507155601 | 60 | 299 | 3.0 | 11.0 | 0.00 | 0.00 | 0.00 | 52 | 1006.5 |
| 20260507155322 | 60 | 338 | 3.0 | 9.0 | 0.00 | 0.00 | 0.00 | 52 | 1006.5 |
| 20260507154601 | 60 | 349 | 3.0 | 9.0 | 0.00 | 0.00 | 0.00 | 50 | 1006.6 |
| 20260507154102 | 60 | 258 | 3.0 | 9.0 | 0.00 | 0.00 | 0.00 | 51 | 1006.8 |
| 20260507153601 | 61 | 299 | 2.0 | 9.0 | 0.00 | 0.00 | 0.00 | 49 | 1006.7 |
| 20260507153101 | 60 | 265 | 3.0 | 11.0 | 0.00 | 0.00 | 0.00 | 53 | 1006.7 |
| 20260507152601 | 59 | 227 | 3.0 | 11.0 | 0.00 | 0.00 | 0.00 | 54 | 1006.9 |
| 20260507152058 | 60 | 290 | 3.0 | 10.0 | 0.00 | 0.00 | 0.00 | 52 | 1007.0 |
| 20260507151559 | 60 | 341 | 3.0 | 10.0 | 0.00 | 0.00 | 0.00 | 52 | 1007.0 |
| 20260507151059 | 59 | 298 | 4.0 | 11.0 | 0.00 | 0.00 | 0.00 | 52 | 1007.1 |
| 20260507150821 | 59 | 296 | 5.0 | 11.0 | 0.00 | 0.00 | 0.00 | 53 | 1007.1 |
| 20260507150108 | 60 | 108 | 4.0 | 14.0 | 0.00 | 0.00 | 0.00 | 54 | 1007.1 |
| 20260507145600 | 60 | 287 | 3.0 | 14.0 | 0.00 | 0.00 | 0.00 | 52 | 1007.1 |
| 20260507145059 | 60 | 299 | 3.0 | 14.0 | 0.00 | 0.00 | 0.00 | 54 | 1007.1 |
| 20260507144825 | 60 | 289 | 3.0 | 14.0 | 0.00 | 0.00 | 0.00 | 53 | 1007.0 |
| 20260507144100 | 60 | 260 | 2.0 | 7.0 | 0.00 | 0.00 | 0.00 | 54 | 1007.0 |
| 20260507143600 | 60 | 312 | 2.0 | 7.0 | 0.00 | 0.00 | 0.00 | 53 | 1007.0 |
| 20260507143100 | 59 | 31 | 3.0 | 7.0 | 0.00 | 0.00 | 0.00 | 54 | 1007.0 |
| 20260507142600 | 59 | 359 | 2.0 | 7.0 | 0.00 | 0.00 | 0.00 | 53 | 1007.0 |
| 20260507142100 | 59 | 293 | 1.0 | 7.0 | 0.00 | 0.00 | 0.00 | 55 | 1006.9 |
| 20260507141600 | 59 | 20 | 1.0 | 7.0 | 0.00 | 0.00 | 0.00 | 55 | 1006.9 |
| 20260507141100 | 58 | 305 | 1.0 | 7.0 | 0.00 | 0.00 | 0.00 | 56 | 1007.0 |
| 20260507140601 | 58 | 306 | 2.0 | 6.0 | 0.00 | 0.00 | 0.00 | 57 | 1006.9 |
| 20260507140111 | 58 | 277 | 2.0 | 7.0 | 0.00 | 0.00 | 0.00 | 58 | 1007.0 |
| 20260507135601 | 58 | 293 | 1.0 | 7.0 | 0.00 | 0.00 | 0.00 | 56 | 1007.0 |
| 20260507135057 | 58 | 303 | 2.0 | 7.0 | 0.00 | 0.00 | 0.00 | 59 | 1007.1 |
| 20260507134557 | 58 | 317 | 2.0 | 7.0 | 0.00 | 0.00 | 0.00 | 57 | 1007.1 |
| 20260507134058 | 57 | 330 | 1.0 | 7.0 | 0.00 | 0.00 | 0.00 | 60 | 1007.2 |
| 20260507133558 | 56 | 300 | 1.0 | 7.0 | 0.00 | 0.00 | 0.00 | 61 | 1007.4 |
| 20260507133057 | 56 | 314 | 2.0 | 7.0 | 0.00 | 0.00 | 0.00 | 62 | 1007.4 |
| 20260507132557 | 56 | 295 | 2.0 | 9.0 | 0.00 | 0.00 | 0.00 | 63 | 1007.5 |
| 20260507132057 | 56 | 305 | 2.0 | 9.0 | 0.00 | 0.00 | 0.00 | 62 | 1007.5 |
| 20260507131557 | 55 | 333 | 2.0 | 9.0 | 0.00 | 0.00 | 0.00 | 62 | 1007.6 |
| 20260507131057 | 55 | 212 | 2.0 | 9.0 | 0.00 | 0.00 | 0.00 | 63 | 1007.6 |
| 20260507130557 | 55 | 283 | 2.0 | 7.0 | 0.00 | 0.00 | 0.00 | 65 | 1007.7 |
| 20260507130329 | 54 | 304 | 2.0 | 7.0 | 0.00 | 0.00 | 0.00 | 66 | 1007.7 |
| 20260507125559 | 54 | 326 | 2.0 | 6.0 | 0.00 | 0.00 | 0.00 | 66 | 1007.7 |
| 20260507125055 | 53 | 324 | 2.0 | 7.0 | 0.00 | 0.00 | 0.00 | 66 | 1007.6 |
| 20260507124552 | 53 | 286 | 2.0 | 7.0 | 0.00 | 0.00 | 0.00 | 68 | 1007.8 |
| 20260507124052 | 53 | 305 | 2.0 | 6.0 | 0.00 | 0.00 | 0.00 | 70 | 1007.8 |
| 20260507123552 | 53 | 304 | 2.0 | 6.0 | 0.00 | 0.00 | 0.00 | 69 | 1008.0 |
| 20260507123050 | 53 | 271 | 2.0 | 6.0 | 0.00 | 0.00 | 0.00 | 71 | 1007.9 |
| 20260507122550 | 52 | 299 | 2.0 | 6.0 | 0.00 | 0.00 | 0.00 | 72 | 1008.0 |
| 20260507122051 | 52 | 310 | 1.0 | 6.0 | 0.00 | 0.00 | 0.00 | 73 | 1008.0 |
| 20260507121816 | 52 | 302 | 1.0 | 6.0 | 0.00 | 0.00 | 0.00 | 73 | 1007.9 |
| 20260507121051 | 51 | 295 | 1.0 | 6.0 | 0.00 | 0.00 | 0.00 | 75 | 1007.9 |
| 20260507120551 | 51 | 295 | 1.0 | 6.0 | 0.00 | 0.00 | 0.00 | 76 | 1007.8 |
| 20260507120106 | 51 | 288 | 1.0 | 4.0 | 0.00 | 0.00 | 0.00 | 76 | 1008.0 |
| 20260507115551 | 51 | 291 | 1.0 | 5.0 | 0.00 | 0.00 | 0.00 | 77 | 1007.9 |
| 20260507115052 | 50 | 264 | 1.0 | 5.0 | 0.00 | 0.00 | 0.00 | 78 | 1007.8 |
| 20260507114812 | 49 | 303 | 0.0 | 5.0 | 0.00 | 0.00 | 0.00 | 80 | 1007.6 |
| 20260507114053 | 49 | 329 | 1.0 | 5.0 | 0.00 | 0.00 | 0.00 | 80 | 1007.5 |
| 20260507113553 | 49 | 349 | 1.0 | 5.0 | 0.00 | 0.00 | 0.00 | 79 | 1007.5 |
| 20260507113307 | 49 | 314 | 1.0 | 5.0 | 0.00 | 0.00 | 0.00 | 80 | 1007.6 |
| 20260507112554 | 49 | 2 | 1.0 | 6.0 | 0.00 | 0.00 | 0.00 | 80 | 1007.6 |
| 20260507112306 | 49 | 351 | 2.0 | 6.0 | 0.00 | 0.00 | 0.00 | 80 | 1007.8 |
| 20260507111542 | 49 | 305 | 1.0 | 6.0 | 0.00 | 0.00 | 0.00 | 80 | 1007.9 |
| 20260507111042 | 49 | 329 | 2.0 | 9.0 | 0.00 | 0.00 | 0.00 | 80 | 1007.5 |
| 20260507110543 | 49 | 234 | 1.0 | 9.0 | 0.00 | 0.00 | 0.00 | 80 | 1007.6 |
| 20260507110053 | 49 | 291 | 1.0 | 9.0 | 0.00 | 0.00 | 0.00 | 80 | 1007.2 |
| 20260507105545 | 49 | 321 | 1.0 | 9.0 | 0.00 | 0.00 | 0.00 | 80 | 1007.5 |
| 20260507105041 | 49 | 286 | 1.0 | 9.0 | 0.00 | 0.00 | 0.00 | 80 | 1007.2 |
| 20260507104807 | 49 | 340 | 2.0 | 9.0 | 0.00 | 0.00 | 0.00 | 81 | 1007.3 |
| 20260507104040 | 49 | 321 | 2.0 | 9.0 | 0.00 | 0.00 | 0.00 | 80 | 1007.1 |
| 20260507103539 | 49 | 288 | 1.0 | 9.0 | 0.00 | 0.00 | 0.00 | 81 | 1007.2 |
| 20260507103307 | 49 | 309 | 1.0 | 6.0 | 0.00 | 0.00 | 0.00 | 81 | 1007.3 |
| 20260507102536 | 49 | 296 | 1.0 | 6.0 | 0.00 | 0.00 | 0.00 | 81 | 1007.2 |
| 20260507102031 | 49 | 298 | 1.0 | 6.0 | 0.00 | 0.00 | 0.00 | 82 | 1007.3 |
| 20260507101532 | 49 | 298 | 1.0 | 6.0 | 0.00 | 0.00 | 0.00 | 82 | 1007.3 |
| 20260507101253 | 49 | 295 | 2.0 | 6.0 | 0.00 | 0.00 | 0.00 | 82 | 1007.2 |
| 20260507100526 | 49 | 324 | 2.0 | 6.0 | 0.00 | 0.00 | 0.00 | 82 | 1007.6 |
| 20260507100027 | 49 | 309 | 1.0 | 6.0 | 0.00 | 0.00 | 0.00 | 82 | 1007.1 |
| 20260507095526 | 49 | 294 | 1.0 | 6.0 | 0.00 | 0.00 | 0.00 | 83 | 1007.3 |
| 20260507095026 | 49 | 271 | 1.0 | 6.0 | 0.00 | 0.00 | 0.00 | 83 | 1007.4 |
| 20260507094526 | 49 | 310 | 2.0 | 7.0 | 0.00 | 0.00 | 0.00 | 83 | 1007.3 |
| 20260507094024 | 49 | 309 | 2.0 | 7.0 | 0.00 | 0.00 | 0.00 | 83 | 1007.2 |
| 20260507093524 | 49 | 295 | 1.0 | 5.0 | 0.00 | 0.00 | 0.00 | 84 | 1007.1 |
| 20260507093023 | 49 | 298 | 1.0 | 7.0 | 0.00 | 0.00 | 0.00 | 84 | 1007.1 |
| 20260507092525 | 49 | 11 | 1.0 | 7.0 | 0.00 | 0.00 | 0.00 | 84 | 1007.1 |
| 20260507092034 | 49 | 299 | 1.0 | 6.0 | 0.00 | 0.00 | 0.00 | 85 | 1007.3 |
| 20260507091531 | 49 | 326 | 1.0 | 6.0 | 0.00 | 0.00 | 0.00 | 85 | 1006.8 |
| 20260507091018 | 49 | 286 | 1.0 | 6.0 | 0.00 | 0.00 | 0.00 | 85 | 1007.1 |
| 20260507090246 | 49 | 303 | 0.0 | 5.0 | 0.00 | 0.00 | 0.00 | 85 | 1006.9 |
| 20260507085516 | 49 | 302 | 1.0 | 5.0 | 0.00 | 0.00 | 0.00 | 85 | 1007.2 |
| 20260507085016 | 49 | 294 | 1.0 | 5.0 | 0.00 | 0.00 | 0.00 | 84 | 1006.8 |
| 20260507085005 | 49 | 327 | 0.0 | 5.0 | 0.00 | 0.00 | 0.00 | 84 | 1006.7 |
| 20260507084015 | 49 | 313 | 0.0 | 3.0 | 0.00 | 0.00 | 0.00 | 84 | 1006.6 |
| 20260507083515 | 49 | 335 | 1.0 | 3.0 | 0.00 | 0.00 | 0.00 | 83 | 1006.8 |
| 20260507083016 | 50 | 294 | 1.0 | 3.0 | 0.00 | 0.00 | 0.00 | 83 | 1006.7 |
| 20260507082514 | 50 | 262 | 1.0 | 5.0 | 0.00 | 0.00 | 0.00 | 82 | 1006.4 |
| 20260507082014 | 50 | 39 | 2.0 | 8.0 | 0.00 | 0.00 | 0.00 | 81 | 1006.5 |
| 20260507081737 | 51 | 335 | 2.0 | 8.0 | 0.00 | 0.00 | 0.00 | 80 | 1006.6 |
| 20260507081012 | 51 | 33 | 3.0 | 9.0 | 0.00 | 0.00 | 0.00 | 79 | 1006.5 |
| 20260507080514 | 51 | 335 | 3.0 | 9.0 | 0.00 | 0.00 | 0.00 | 79 | 1006.8 |
| 20260507080012 | 51 | 319 | 3.0 | 9.0 | 0.00 | 0.00 | 0.00 | 80 | 1006.6 |
| 20260507075513 | 51 | 302 | 3.0 | 9.0 | 0.00 | 0.00 | 0.00 | 80 | 1006.5 |
| 20260507075231 | 51 | 288 | 2.0 | 8.0 | 0.00 | 0.00 | 0.00 | 80 | 1006.3 |
| 20260507074738 | 51 | 333 | 3.0 | 8.0 | 0.00 | 0.00 | 0.00 | 81 | 1006.1 |
| 20260507074008 | 51 | 278 | 3.0 | 8.0 | 0.00 | 0.00 | 0.00 | 81 | 1006.3 |
| 20260507073508 | 51 | 291 | 2.0 | 8.0 | 0.00 | 0.00 | 0.00 | 81 | 1006.3 |
| 20260507073008 | 51 | 300 | 2.0 | 8.0 | 0.00 | 0.00 | 0.00 | 80 | 1006.0 |
| 20260507072507 | 51 | 301 | 3.0 | 8.0 | 0.00 | 0.00 | 0.00 | 80 | 1006.2 |
| 20260507072009 | 51 | 287 | 3.0 | 9.0 | 0.00 | 0.00 | 0.00 | 80 | 1006.3 |
| 20260507071507 | 51 | 291 | 3.0 | 9.0 | 0.00 | 0.00 | 0.00 | 80 | 1006.6 |
| 20260507071002 | 51 | 315 | 2.0 | 9.0 | 0.00 | 0.00 | 0.00 | 80 | 1006.1 |
| 20260507070956 | 51 | 317 | 2.0 | 9.0 | 0.00 | 0.00 | 0.00 | 80 | 1006.0 |
| 20260507070004 | 51 | 329 | 2.0 | 8.0 | 0.00 | 0.00 | 0.00 | 80 | 1006.1 |
| 20260507065503 | 52 | 345 | 3.0 | 8.0 | 0.00 | 0.00 | 0.00 | 80 | 1006.1 |
| 20260507065016 | 52 | 269 | 3.0 | 8.0 | 0.00 | 0.00 | 0.00 | 80 | 1006.3 |
| 20260507064502 | 52 | 300 | 3.0 | 8.0 | 0.00 | 0.00 | 0.00 | 79 | 1005.8 |
| 20260507064002 | 52 | 288 | 3.0 | 6.0 | 0.00 | 0.00 | 0.00 | 79 | 1005.9 |
| 20260507063728 | 52 | 306 | 2.0 | 6.0 | 0.00 | 0.00 | 0.00 | 79 | 1005.9 |
| 20260507063003 | 52 | 274 | 2.0 | 8.0 | 0.00 | 0.00 | 0.00 | 80 | 1005.8 |
| 20260507062728 | 52 | 329 | 2.0 | 8.0 | 0.00 | 0.00 | 0.00 | 80 | 1005.7 |
| 20260507062239 | 52 | 298 | 3.0 | 9.0 | 0.00 | 0.00 | 0.00 | 79 | 1005.7 |
| 20260507061504 | 52 | 319 | 3.0 | 9.0 | 0.00 | 0.00 | 0.00 | 79 | 1005.8 |
| 20260507060957 | 52 | 301 | 2.0 | 10.0 | 0.00 | 0.00 | 0.00 | 80 | 1005.7 |
| 20260507060457 | 52 | 288 | 3.0 | 10.0 | 0.00 | 0.00 | 0.00 | 80 | 1005.7 |
| 20260507055957 | 53 | 20 | 2.0 | 8.0 | 0.00 | 0.00 | 0.00 | 80 | 1006.1 |
| 20260507055457 | 53 | 358 | 2.0 | 7.0 | 0.00 | 0.00 | 0.00 | 80 | 1006.0 |
| 20260507054958 | 53 | 307 | 1.0 | 7.0 | 0.00 | 0.00 | 0.00 | 80 | 1006.0 |
| 20260507054459 | 53 | 332 | 1.0 | 4.0 | 0.00 | 0.00 | 0.00 | 81 | 1006.1 |
| 20260507054001 | 53 | 348 | 1.0 | 7.0 | 0.00 | 0.00 | 0.00 | 81 | 1005.9 |
| 20260507053501 | 53 | 342 | 1.0 | 7.0 | 0.00 | 0.00 | 0.00 | 81 | 1006.1 |
| 20260507053001 | 53 | 304 | 1.0 | 7.0 | 0.00 | 0.00 | 0.00 | 81 | 1006.1 |
| 20260507052500 | 53 | 320 | 1.0 | 7.0 | 0.00 | 0.00 | 0.00 | 81 | 1005.9 |
| 20260507051958 | 54 | 323 | 1.0 | 7.0 | 0.00 | 0.00 | 0.00 | 81 | 1005.8 |
| 20260507051458 | 54 | 321 | 1.0 | 7.0 | 0.00 | 0.00 | 0.00 | 82 | 1005.5 |
| 20260507051216 | 54 | 319 | 2.0 | 7.0 | 0.00 | 0.00 | 0.00 | 81 | 1005.7 |
| 20260507050453 | 54 | 321 | 2.0 | 7.0 | 0.00 | 0.00 | 0.00 | 81 | 1005.7 |
| 20260507045951 | 54 | 333 | 2.0 | 7.0 | 0.00 | 0.00 | 0.00 | 81 | 1005.7 |
| 20260507045450 | 54 | 283 | 2.0 | 7.0 | 0.00 | 0.00 | 0.00 | 81 | 1005.7 |
| 20260507044948 | 55 | 311 | 2.0 | 7.0 | 0.00 | 0.00 | 0.00 | 82 | 1005.5 |
| 20260507044447 | 55 | 325 | 1.0 | 6.0 | 0.00 | 0.00 | 0.00 | 82 | 1005.7 |
| 20260507043947 | 55 | 46 | 1.0 | 8.0 | 0.00 | 0.00 | 0.00 | 82 | 1005.8 |
| 20260507043713 | 55 | 284 | 2.0 | 8.0 | 0.00 | 0.00 | 0.00 | 82 | 1006.0 |
| 20260507042947 | 55 | 274 | 2.0 | 8.0 | 0.00 | 0.00 | 0.00 | 82 | 1005.9 |
| 20260507042447 | 56 | 257 | 2.0 | 8.0 | 0.00 | 0.00 | 0.00 | 81 | 1005.8 |
| 20260507041947 | 56 | 340 | 2.0 | 6.0 | 0.00 | 0.00 | 0.00 | 81 | 1005.5 |
| 20260507041447 | 56 | 327 | 1.0 | 5.0 | 0.00 | 0.00 | 0.00 | 81 | 1005.4 |
| 20260507040948 | 56 | 336 | 2.0 | 14.0 | 0.00 | 0.00 | 0.00 | 81 | 1005.4 |
| 20260507040446 | 57 | 293 | 3.0 | 14.0 | 0.00 | 0.00 | 0.00 | 82 | 1005.3 |
| 20260507040203 | 57 | 319 | 4.0 | 14.0 | 0.00 | 0.00 | 0.00 | 82 | 1005.2 |
| 20260507035707 | 57 | 329 | 4.0 | 14.0 | 0.00 | 0.00 | 0.00 | 83 | 1005.1 |
| 20260507034942 | 58 | 294 | 3.0 | 9.0 | 0.00 | 0.00 | 0.00 | 85 | 1005.0 |
| 20260507034700 | 58 | 309 | 2.0 | 13.0 | 0.00 | 0.00 | 0.00 | 86 | 1004.9 |
| 20260507034211 | 59 | 345 | 3.0 | 13.0 | 0.00 | 0.00 | 0.00 | 87 | 1004.8 |
| 20260507033443 | 59 | 309 | 4.0 | 13.0 | 0.00 | 0.00 | 0.00 | 87 | 1004.8 |
| 20260507032956 | 59 | 311 | 3.0 | 13.0 | 0.00 | 0.00 | 0.00 | 88 | 1005.0 |
| 20260507032930 | 60 | 284 | 2.0 | 8.0 | 0.00 | 0.00 | 0.00 | 89 | 1005.0 |
| 20260507031943 | 60 | 281 | 1.0 | 5.0 | 0.00 | 0.00 | 0.00 | 90 | 1004.9 |
| 20260507031442 | 60 | 322 | 2.0 | 7.0 | 0.00 | 0.00 | 0.00 | 90 | 1004.8 |
| 20260507031204 | 60 | 327 | 3.0 | 7.0 | 0.00 | 0.00 | 0.00 | 90 | 1004.6 |
| 20260507030441 | 60 | 215 | 2.0 | 7.0 | 0.00 | 0.00 | 0.00 | 90 | 1004.4 |
| 20260507025941 | 60 | 288 | 2.0 | 7.0 | 0.00 | 0.00 | 0.00 | 90 | 1004.4 |
| 20260507025441 | 60 | 300 | 2.0 | 6.0 | 0.00 | 0.00 | 0.00 | 90 | 1004.3 |
| 20260507024941 | 60 | 266 | 2.0 | 5.0 | 0.00 | 0.00 | 0.00 | 90 | 1004.3 |
| 20260507024713 | 60 | 213 | 1.0 | 7.0 | 0.00 | 0.00 | 0.00 | 90 | 1004.3 |
| 20260507023955 | 60 | 288 | 2.0 | 7.0 | 0.00 | 0.00 | 0.00 | 90 | 1004.3 |
| 20260507023442 | 60 | 295 | 2.0 | 7.0 | 0.00 | 0.00 | 0.00 | 90 | 1004.3 |
| 20260507022940 | 60 | 297 | 2.0 | 7.0 | 0.00 | 0.00 | 0.00 | 90 | 1004.4 |
| 20260507022440 | 60 | 283 | 2.0 | 6.0 | 0.00 | 0.00 | 0.00 | 90 | 1004.4 |
| 20260507022201 | 60 | 335 | 2.0 | 6.0 | 0.00 | 0.00 | 0.00 | 90 | 1004.3 |
| 20260507021440 | 60 | 270 | 2.0 | 6.0 | 0.00 | 0.00 | 0.00 | 90 | 1004.5 |
| 20260507020939 | 60 | 298 | 2.0 | 6.0 | 0.00 | 0.00 | 0.00 | 90 | 1004.5 |
| 20260507020439 | 60 | 255 | 2.0 | 6.0 | 0.00 | 0.00 | 0.00 | 90 | 1004.6 |
| 20260507015939 | 60 | 248 | 2.0 | 6.0 | 0.00 | 0.00 | 0.00 | 90 | 1004.7 |
| 20260507015439 | 60 | 217 | 2.0 | 6.0 | 0.00 | 0.00 | 0.00 | 91 | 1004.6 |
| 20260507014938 | 60 | 330 | 2.0 | 6.0 | 0.00 | 0.00 | 0.00 | 91 | 1004.7 |
| 20260507014438 | 60 | 257 | 2.0 | 6.0 | 0.00 | 0.00 | 0.00 | 91 | 1004.8 |
| 20260507013938 | 60 | 263 | 2.0 | 6.0 | 0.00 | 0.00 | 0.00 | 91 | 1004.8 |
| 20260507013438 | 60 | 295 | 2.0 | 7.0 | 0.00 | 0.00 | 0.00 | 91 | 1004.8 |
| 20260507012938 | 59 | 262 | 2.0 | 7.0 | 0.00 | 0.00 | 0.00 | 92 | 1004.9 |
| 20260507012438 | 59 | 234 | 1.0 | 6.0 | 0.00 | 0.00 | 0.00 | 92 | 1004.8 |
| 20260507012155 | 59 | 264 | 1.0 | 6.0 | 0.00 | 0.00 | 0.00 | 91 | 1004.9 |
| 20260507011703 | 58 | 276 | 0.0 | 3.0 | 0.00 | 0.00 | 0.00 | 91 | 1005.0 |
| 20260507010937 | 58 | 264 | 0.0 | 3.0 | 0.00 | 0.00 | 0.00 | 91 | 1004.9 |
| 20260507010708 | 58 | 262 | 0.0 | 1.0 | 0.00 | 0.00 | 0.00 | 91 | 1004.9 |
| 20260507010417 | 58 | 238 | 0.0 | 1.0 | 0.00 | 0.00 | 0.00 | 91 | 1005.0 |
| 20260507005437 | 58 | 266 | 0.0 | 1.0 | 0.00 | 0.00 | 0.00 | 91 | 1005.0 |
| 20260507005155 | 58 | 266 | 0.0 | 1.0 | 0.00 | 0.00 | 0.00 | 91 | 1005.1 |
| 20260507004436 | 58 | 266 | 0.0 | 1.0 | 0.00 | 0.00 | 0.00 | 91 | 1005.1 |
| 20260507004206 | 58 | 162 | 0.0 | 1.0 | 0.00 | 0.00 | 0.00 | 91 | 1005.0 |
| 20260507003659 | 58 | 143 | 0.0 | 1.0 | 0.00 | 0.00 | 0.00 | 91 | 1004.9 |
| 20260507002936 | 58 | 220 | 0.0 | 1.0 | 0.00 | 0.00 | 0.00 | 91 | 1004.9 |
| 20260507002436 | 58 | 226 | 0.0 | 1.0 | 0.00 | 0.00 | 0.00 | 91 | 1005.0 |
| 20260507002211 | 58 | 140 | 0.0 | 1.0 | 0.00 | 0.00 | 0.00 | 91 | 1004.8 |
| 20260507001718 | 58 | 220 | 0.0 | 2.0 | 0.00 | 0.00 | 0.00 | 91 | 1004.9 |
| 20260507001154 | 58 | 262 | 0.0 | 2.0 | 0.00 | 0.00 | 0.00 | 91 | 1004.8 |
| 20260507000435 | 58 | 205 | 0.0 | 2.0 | 0.00 | 0.00 | 0.00 | 91 | 1004.8 |
| 20260506235933 | 58 | 203 | 0.0 | 2.0 | 0.00 | 0.00 | 0.00 | 91 | 1004.7 |
| 20260506235434 | 58 | 248 | 0.0 | 4.0 | 0.00 | 0.00 | 0.00 | 91 | 1004.7 |
| 20260506234934 | 58 | 153 | 0.0 | 4.0 | 0.00 | 0.00 | 0.00 | 90 | 1004.7 |
| 20260506234434 | 58 | 187 | 0.0 | 4.0 | 0.00 | 0.00 | 0.00 | 90 | 1004.9 |
| 20260506233931 | 58 | 180 | 0.0 | 4.0 | 0.00 | 0.00 | 0.00 | 90 | 1004.9 |
| 20260506233431 | 58 | 141 | 0.0 | 3.0 | 0.00 | 0.00 | 0.00 | 90 | 1004.8 |
| 20260506232933 | 58 | 138 | 0.0 | 3.0 | 0.00 | 0.00 | 0.00 | 90 | 1004.9 |
| 20260506232432 | 58 | 250 | 0.0 | 3.0 | 0.00 | 0.00 | 0.00 | 90 | 1005.0 |
| 20260506231932 | 58 | 219 | 0.0 | 2.0 | 0.00 | 0.00 | 0.00 | 90 | 1005.0 |
| 20260506231433 | 58 | 176 | 0.0 | 1.0 | 0.00 | 0.00 | 0.00 | 90 | 1005.0 |
| 20260506230932 | 58 | 132 | 0.0 | 1.0 | 0.00 | 0.00 | 0.00 | 90 | 1005.0 |
| 20260506230429 | 58 | 263 | 0.0 | 2.0 | 0.00 | 0.00 | 0.00 | 90 | 1005.0 |
| 20260506225929 | 58 | 240 | 0.0 | 2.0 | 0.00 | 0.00 | 0.00 | 90 | 1005.0 |
| 20260506225429 | 58 | 257 | 0.0 | 2.0 | 0.00 | 0.00 | 0.00 | 90 | 1005.0 |
| 20260506224929 | 58 | 234 | 0.0 | 2.0 | 0.00 | 0.00 | 0.00 | 90 | 1005.0 |
| 20260506224429 | 58 | 274 | 0.0 | 2.0 | 0.00 | 0.00 | 0.00 | 90 | 1005.0 |
| 20260506224415 | 58 | 210 | 0.0 | 1.0 | 0.00 | 0.00 | 0.00 | 90 | 1005.1 |
| 20260506223431 | 58 | 196 | 0.0 | 2.0 | 0.00 | 0.00 | 0.00 | 89 | 1005.1 |
| 20260506222930 | 59 | 146 | 0.0 | 2.0 | 0.00 | 0.00 | 0.00 | 89 | 1005.2 |
| 20260506222430 | 59 | 177 | 0.0 | 2.0 | 0.00 | 0.00 | 0.00 | 89 | 1005.2 |
| 20260506222420 | 59 | 170 | 0.0 | 2.0 | 0.00 | 0.00 | 0.00 | 89 | 1005.2 |
| 20260506221427 | 59 | 212 | 0.0 | 1.0 | 0.00 | 0.00 | 0.00 | 89 | 1005.3 |
| 20260506220927 | 59 | 133 | 0.0 | 1.0 | 0.00 | 0.00 | 0.00 | 89 | 1005.3 |
| 20260506220649 | 59 | 179 | 0.0 | 6.0 | 0.00 | 0.00 | 0.00 | 89 | 1005.4 |
| 20260506215926 | 59 | 188 | 0.0 | 6.0 | 0.00 | 0.00 | 0.00 | 89 | 1005.5 |
| 20260506215427 | 59 | 156 | 0.0 | 6.0 | 0.00 | 0.00 | 0.00 | 89 | 1005.5 |
| 20260506215150 | 59 | 224 | 0.0 | 6.0 | 0.00 | 0.00 | 0.00 | 89 | 1005.5 |
| 20260506214428 | 59 | 174 | 0.0 | 3.0 | 0.00 | 0.00 | 0.00 | 89 | 1005.5 |
| 20260506213928 | 59 | 156 | 1.0 | 4.0 | 0.00 | 0.00 | 0.00 | 89 | 1005.6 |
| 20260506213649 | 59 | 238 | 1.0 | 4.0 | 0.00 | 0.00 | 0.00 | 89 | 1005.7 |